Погода в Никольском

Россия / Сахалинская область     48°59′13″N   142°08′07″E
темп.,
°C
ветер,
м/с
пор.,
м/с
влажн.,
%
обл.,
%
осадки,
мм/ч
давл.,
гПа
погр.,
м
11 мая, вт
вт1123:00+2всв1292100 0.0 101163
02:00+2всв118099 0.0 101231
05:000в116997 0.0 101313
08:00+3зюз005388 0.0 1015195
11:00+9з1236100 0.0 10151150
14:00+11з233679 0.0 10151620
17:00+10зсз224170 0.0 10161183
20:00+6зюз1159100 0.0 101875
12 мая, ср
ср1223:00+2ююв2275100 0.0 102039
02:00+1ю1181100 0.0 102112
05:000в1182100 0.0 102110
08:00+4ю11637 0.0 1022219
11:00+9зюз23431 0.0 10201018
14:00+10з43453 0.0 10191122
17:00+10зюз34471 0.0 1018977
20:00+6ю24625 0.0 1019492
13 мая, чт
чт1323:00+2юв2383100 0.0 101987
02:00+2юв2586100 0.0 1018125
05:00+1юв2584100 0.0 1017136
08:00+3юв2778100 0.0 1016405
11:00+4юв31092100 0.3 1015629
14:00+5вюв2893100 0.3 1013619
17:00+6вюв2688100 0.3 1012812
20:00+5вюв2389100 0.0 1012292
14 мая, пт
пт1423:00+4юв249499 0.0 1013190
02:00+4вюв239777 0.0 1013126
05:00+4юв139698 0.0 1012127
08:00+6юв128972 0.0 1013302
11:00+10ююз1174100 0.0 1013667
14:00+14з225969 0.0 10121117
17:00+15зсз225612 0.0 10121072
20:00+12юз11711 0.0 101232
15 мая, сб
сб1523:00+7юв23939 0.0 101565
02:00+6вюв3391100 0.0 101450
05:00+7вюв3386100 0.0 101361
08:00+9вюв3674100 0.0 1011184
11:00+12ююв41366100 0.0 10101018
14:00+11ю51589100 1.3 10071418
17:00+10ююв51687100 7.0 10011352
20:00+8ююз51394100 2.8 1001803